Location: Oberwangen
(47.4286°N, 8.9679°E)
Time: 13:23:35
(UTC+00:00)

CENTAUR R/B - Pass Details

Date: 20 June 2021
Orbit: 740 x 1447 km, 63.4° (Epoch: 17 July)

Event Time Altitude Azimuth Distance (km) Brightness Sun altitude
Rises 20:35:24 0° 254° (WSW) 3,515 5.7 -9.4°
Reaches altitude 10° 20:37:57 10° 263° (W) 2,669 5.2 -9.7°
Maximum altitude 20:43:46 37° 330° (NNW) 1,591 4.4 -10.3°
Drops below altitude 10° 20:50:38 10° 36° (NE) 3,155 5.4 -11.0°
Sets 20:53:54 0° 44° (NE) 4,233 6.0 -11.3°
